N5PA-2 Weather Reports


Display with metric or nautical units.
time (UTC)temp
F
wind
direction
speed
MPH
gust
MPH
rain 1hr
in
rain 24hr
in
rain mn
in
humidity
%
barometer
mb
20260510093505 66 242 0.0 2.0 0.00 0.77 0.00 76 1012.8
20260510093005 66 279 0.0 2.0 0.00 0.77 0.00 76 1012.7
20260510092504 66 260 0.0 2.0 0.00 0.77 0.00 76 1012.7
20260510092004 66 243 0.0 2.0 0.00 0.77 0.00 76 1012.6
20260510091504 66 80 0.0 1.0 0.00 0.77 0.00 76 1012.4
20260510091005 66 80 0.0 1.0 0.00 0.77 0.00 76 1012.4
20260510090505 66 80 0.0 1.0 0.00 0.77 0.00 76 1012.4
20260510085504 66 80 0.0 2.0 0.00 0.77 0.00 76 1012.4
20260510084504 66 0 0.0 0.0 0.00 0.77 0.00 76 1012.4
20260510084004 66 0 0.0 0.0 0.00 0.77 0.00 76 1012.4
20260510083504 66 0 0.0 0.0 0.00 0.77 0.00 76 1012.4
20260510083005 66 0 0.0 0.0 0.00 0.77 0.00 76 1012.4
20260510082505 66 0 0.0 0.0 0.00 0.77 0.00 76 1012.3
20260510082004 66 148 0.0 2.0 0.00 0.77 0.00 76 1012.3
20260510081005 66 79 0.0 1.0 0.00 0.77 0.00 77 1012.3
20260510080505 66 79 0.0 1.0 0.00 0.77 0.00 77 1012.2
20260510080004 66 79 0.0 2.0 0.00 0.77 0.00 77 1012.1
20260510075504 66 79 0.0 2.0 0.00 0.77 0.00 77 1012.0
20260510075005 66 79 0.0 1.0 0.00 0.77 0.00 77 1012.0
20260510074504 66 79 0.0 1.0 0.00 0.77 0.00 77 1012.0
20260510074004 66 79 0.0 1.0 0.00 0.77 0.00 77 1011.9
20260510073504 66 79 0.0 1.0 0.00 0.77 0.00 77 1011.9
20260510073004 66 79 0.0 1.0 0.00 0.77 0.00 77 1011.8
20260510071504 66 0 0.0 0.0 0.00 0.77 0.00 77 1011.7
20260510070504 66 89 0.0 2.0 0.00 0.77 0.00 77 1011.7
20260510070004 66 100 0.0 2.0 0.00 0.77 0.00 77 1011.7
20260510065504 66 205 0.0 1.0 0.00 0.77 0.00 77 1011.8
20260510064504 67 0 0.0 0.0 0.00 0.77 0.00 78 1011.9
20260510064004 67 0 0.0 0.0 0.00 0.77 0.00 78 1011.9
20260510063504 66 0 0.0 0.0 0.00 0.77 0.00 78 1011.8
20260510063005 66 0 0.0 0.0 0.00 0.77 0.00 78 1011.9
20260510062504 66 0 0.0 0.0 0.00 0.77 0.00 78 1011.9
20260510062004 67 205 0.0 1.0 0.00 0.77 0.00 78 1011.9
20260510061504 67 204 0.0 1.0 0.00 0.77 0.00 78 1011.9
20260510061004 67 205 0.0 1.0 0.00 0.77 0.00 78 1011.9
20260510060504 67 226 0.0 2.0 0.00 0.77 0.00 78 1011.8
20260510060004 67 229 0.0 3.0 0.00 0.77 0.00 78 1011.8
20260510055504 67 225 0.0 3.0 0.00 0.77 0.00 78 1012.0
20260510055005 67 223 0.0 2.0 0.00 0.77 0.00 78 1011.9
20260510054504 67 230 1.0 3.0 0.00 0.77 0.00 78 1012.0
20260510054004 67 227 1.0 3.0 0.00 0.77 0.00 78 1012.0
20260510053504 67 160 0.0 2.0 0.00 0.77 0.00 78 1011.9
20260510052504 67 210 0.0 2.0 0.00 0.77 0.00 78 1011.9
20260510052005 67 208 0.0 2.0 0.00 0.77 0.00 78 1011.9
20260510051505 67 90 0.0 1.0 0.00 0.77 0.00 78 1012.0
20260510050505 67 90 0.0 1.0 0.00 0.77 0.00 78 1012.0
20260510045505 67 124 0.0 2.0 0.00 0.77 0.77 78 1012.0
20260510045005 67 148 0.0 1.0 0.00 0.77 0.77 78 1012.1
20260510044505 67 147 0.0 1.0 0.00 0.77 0.77 78 1012.0
20260510043505 67 179 0.0 1.0 0.00 0.77 0.77 78 1012.1
20260510043005 67 190 0.0 1.0 0.00 0.77 0.77 78 1012.1
20260510042505 67 221 0.0 2.0 0.00 0.77 0.77 78 1012.1
20260510042005 67 220 0.0 2.0 0.00 0.77 0.77 78 1012.3
20260510041505 67 105 0.0 1.0 0.00 0.77 0.77 78 1012.3
20260510041005 67 97 0.0 1.0 0.00 0.77 0.77 78 1012.2
20260510040505 67 74 0.0 2.0 0.00 0.77 0.77 78 1012.3
20260510040005 67 76 0.0 2.0 0.00 0.77 0.77 78 1012.0
20260510035005 67 76 0.0 2.0 0.00 0.77 0.77 79 1012.0
20260510034505 67 79 0.0 1.0 0.00 0.77 0.77 79 1012.1
20260510033005 67 80 1.0 2.0 0.00 0.77 0.77 79 1012.0
20260510032505 67 84 1.0 3.0 0.00 0.77 0.77 79 1012.1
20260510032005 67 88 0.0 3.0 0.00 0.77 0.77 79 1012.2
20260510031505 67 0 0.0 0.0 0.00 0.77 0.77 79 1012.4
20260510030504 67 104 0.0 2.0 0.00 0.77 0.77 79 1012.3
20260510030005 67 104 0.0 1.0 0.00 0.77 0.77 79 1012.5
20260510025506 67 109 0.0 1.0 0.00 0.77 0.77 79 1012.4
20260510025005 67 117 0.0 1.0 0.00 0.77 0.77 79 1012.3
20260510024505 67 225 0.0 2.0 0.00 0.77 0.77 79 1012.3
20260510024005 67 225 0.0 2.0 0.00 0.77 0.77 79 1012.3
20260510023504 67 0 0.0 0.0 0.00 0.77 0.77 79 1012.2
20260510023004 67 76 0.0 2.0 0.00 0.77 0.77 79 1011.9
20260510022505 67 79 0.0 2.0 0.00 0.77 0.77 79 1011.8
20260510022005 67 82 0.0 2.0 0.00 0.77 0.77 79 1011.7
20260510021505 67 84 0.0 1.0 0.00 0.77 0.77 79 1011.8
20260510021005 67 84 0.0 1.0 0.00 0.77 0.77 79 1012.0
20260510020505 67 84 0.0 2.0 0.00 0.77 0.77 80 1011.9
20260510020004 67 83 0.0 2.0 0.00 0.77 0.77 80 1011.7
20260510015504 67 82 0.0 2.0 0.00 0.77 0.77 80 1011.6
20260510014505 67 83 0.0 1.0 0.00 0.77 0.77 80 1011.6
20260510013504 67 83 0.0 1.0 0.00 0.77 0.77 81 1011.1
20260510013005 67 0 0.0 0.0 0.00 0.77 0.77 81 1010.9
20260510012505 68 0 0.0 0.0 0.00 0.77 0.77 82 1010.9
20260510012005 68 0 0.0 0.0 0.00 0.77 0.77 82 1011.2
20260510011504 68 0 0.0 0.0 0.00 0.77 0.77 82 1011.3
20260510011004 68 0 0.0 0.0 0.00 0.77 0.77 82 1011.1
20260510010504 68 0 0.0 0.0 0.00 0.77 0.77 83 1011.2
20260510010005 68 0 0.0 0.0 0.00 0.77 0.77 83 1011.1
20260510005505 68 0 0.0 0.0 0.00 0.77 0.77 83 1010.9
20260510004504 68 0 0.0 0.0 0.00 0.77 0.77 83 1010.7
20260510004004 69 0 0.0 0.0 0.00 0.77 0.77 83 1010.8
20260510002504 69 0 0.0 0.0 0.00 0.77 0.77 83 1010.6
20260510002005 69 0 0.0 0.0 0.00 0.77 0.77 84 1010.6
20260510001505 69 0 0.0 0.0 0.00 0.77 0.77 84 1010.6
20260510001004 69 241 0.0 1.0 0.00 0.77 0.77 84 1010.5
20260510000504 69 241 0.0 1.0 0.00 0.77 0.77 84 1010.4
20260510000004 69 249 0.0 3.0 0.00 0.77 0.77 84 1010.5
20260509235504 69 245 1.0 3.0 0.00 0.77 0.77 84 1010.5
20260509235005 69 227 1.0 4.0 0.00 0.77 0.77 84 1010.4
20260509234505 69 222 1.0 5.0 0.00 0.77 0.77 84 1010.4
20260509233504 69 223 2.0 5.0 0.00 0.77 0.77 84 1010.5
20260509233004 69 222 1.0 7.0 0.00 0.77 0.77 84 1010.5
20260509232004 70 220 0.0 3.0 0.00 0.77 0.77 84 1010.3
20260509231505 70 210 0.0 3.0 0.00 0.77 0.77 84 1010.2
20260509231005 69 215 1.0 4.0 0.00 0.77 0.77 84 1010.3
20260509230505 69 222 2.0 5.0 0.00 0.77 0.77 84 1010.4
20260509225504 70 225 1.0 6.0 0.00 0.77 0.77 84 1010.3
20260509225004 70 229 1.0 6.0 0.00 0.77 0.77 84 1010.2
20260509224504 70 223 1.0 5.0 0.00 0.77 0.77 84 1010.1
20260509224005 69 223 2.0 5.0 0.00 0.77 0.77 84 1010.0
20260509223504 69 225 2.0 5.0 0.00 0.77 0.77 84 1010.0
20260509223005 69 232 2.0 5.0 0.00 0.77 0.77 84 1009.9
20260509222505 69 224 2.0 5.0 0.00 0.77 0.77 84 1009.8
20260509222004 70 218 2.0 5.0 0.00 0.77 0.77 84 1010.0
20260509221504 70 226 2.0 4.0 0.00 0.77 0.77 84 1009.8
20260509221004 70 223 1.0 4.0 0.00 0.77 0.77 84 1009.8
20260509220004 70 228 1.0 3.0 0.00 0.77 0.77 84 1009.8
20260509215505 70 230 1.0 6.0 0.00 0.77 0.77 84 1009.8
20260509215004 70 229 2.0 7.0 0.00 0.77 0.77 84 1009.7
20260509214504 70 229 2.0 7.0 0.00 0.77 0.77 84 1009.8
20260509214004 70 228 1.0 3.0 0.00 0.77 0.77 84 1009.8
20260509213504 70 226 1.0 3.0 0.00 0.77 0.77 84 1009.9
20260509213005 71 229 1.0 4.0 0.00 0.77 0.77 84 1010.0
20260509212504 71 228 2.0 8.0 0.00 0.77 0.77 84 1010.2
20260509212004 71 218 2.0 8.0 0.00 0.77 0.77 84 1010.1
20260509211504 71 215 2.0 5.0 0.00 0.77 0.77 84 1009.8
20260509211004 71 219 2.0 7.0 0.00 0.77 0.77 84 1009.9
20260509210504 72 225 2.0 7.0 0.00 0.77 0.77 84 1009.9
20260509210004 72 244 1.0 7.0 0.00 0.77 0.77 84 1009.6
20260509205504 72 248 0.0 2.0 0.00 0.77 0.77 84 1009.7
20260509205005 72 217 0.0 3.0 0.00 0.77 0.77 84 1009.6
20260509203504 74 234 1.0 8.0 0.00 0.77 0.77 83 1009.8
20260509203004 74 226 1.0 6.0 0.00 0.77 0.77 83 1009.8
20260509202504 75 208 1.0 9.0 0.00 0.77 0.77 83 1009.7
20260509202004 76 203 1.0 9.0 0.00 0.77 0.77 82 1009.7
20260509201505 76 228 0.0 2.0 0.00 0.77 0.77 82 1009.7
20260509201005 76 220 0.0 1.0 0.00 0.77 0.77 82 1009.7
20260509200505 76 217 1.0 3.0 0.00 0.77 0.77 82 1009.8
20260509200005 76 217 1.0 3.0 0.00 0.77 0.77 81 1010.0
20260509195506 76 220 0.0 2.0 0.00 0.77 0.77 82 1010.0
20260509195005 76 0 0.0 0.0 0.00 0.77 0.77 83 1010.0
20260509194505 76 0 0.0 0.0 0.00 0.77 0.77 82 1010.0
20260509194005 76 218 0.0 2.0 0.00 0.77 0.77 82 1009.9
20260509193505 76 193 1.0 2.0 0.00 0.77 0.77 80 1009.8
20260509193005 76 73 1.0 2.0 0.00 0.77 0.77 81 1009.8
20260509192005 76 93 0.0 2.0 0.00 0.77 0.77 81 1009.9
20260509191505 76 78 0.0 2.0 0.00 0.77 0.77 82 1009.9
20260509191005 76 94 0.0 1.0 0.00 0.77 0.77 82 1010.2
20260509190006 76 85 0.0 1.0 0.00 0.77 0.77 82 1010.4
20260509185505 76 72 0.0 2.0 0.00 0.77 0.77 82 1010.3
20260509185005 76 86 1.0 2.0 0.00 0.77 0.77 81 1010.3
20260509184504 76 150 0.0 2.0 0.00 0.77 0.77 81 1010.3
20260509184005 76 186 0.0 1.0 0.00 0.77 0.77 81 1010.2
20260509183505 75 80 0.0 1.0 0.00 0.77 0.77 82 1010.2
20260509182505 75 78 0.0 3.0 0.00 0.78 0.77 82 1010.4
20260509182004 75 80 0.0 3.0 0.00 0.78 0.77 81 1010.4
20260509181505 76 90 0.0 1.0 0.00 0.78 0.77 83 1010.4
20260509181005 76 89 0.0 2.0 0.00 0.78 0.77 82 1010.3
20260509180504 76 90 0.0 2.0 0.00 0.78 0.77 81 1010.2
20260509175505 76 82 1.0 4.0 0.00 0.78 0.77 82 1010.4
20260509175005 75 81 1.0 4.0 0.00 0.78 0.77 82 1010.4
20260509174505 76 84 1.0 4.0 0.00 0.78 0.77 82 1010.4
20260509174005 75 60 1.0 4.0 0.00 0.78 0.77 83 1010.5
20260509173505 75 48 1.0 4.0 0.00 0.78 0.77 82 1010.3
20260509173005 75 311 1.0 2.0 0.00 0.78 0.77 82 1010.5
20260509172505 75 334 1.0 2.0 0.00 0.78 0.77 82 1010.5
20260509172005 75 85 0.0 2.0 0.00 0.78 0.77 83 1010.9
20260509170505 73 36 1.0 3.0 0.00 0.78 0.77 83 1011.1
20260509170005 73 77 1.0 5.0 0.00 0.78 0.77 84 1011.1
20260509165505 73 67 2.0 5.0 0.00 0.78 0.77 83 1011.0
20260509165005 73 46 1.0 3.0 0.00 0.78 0.77 83 1010.9
20260509164005 72 320 1.0 3.0 0.00 0.79 0.77 83 1010.9
20260509163504 72 20 1.0 3.0 0.00 0.79 0.77 83 1011.0
20260509162505 71 60 1.0 3.0 0.00 0.79 0.77 83 1011.2
20260509162004 71 68 1.0 3.0 0.00 0.79 0.77 82 1011.2
20260509161505 70 72 1.0 4.0 0.00 0.79 0.77 82 1011.4
20260509161005 70 62 1.0 4.0 0.00 0.79 0.77 80 1011.5
20260509160504 70 42 1.0 4.0 0.00 0.79 0.77 79 1011.5
20260509155504 69 69 1.0 4.0 0.00 0.79 0.77 76 1011.7
20260509155004 69 55 0.0 3.0 0.00 0.80 0.77 74 1011.7
20260509154504 69 32 0.0 3.0 0.00 0.81 0.77 73 1011.8
20260509153504 69 53 0.0 2.0 0.00 0.83 0.77 73 1011.5
20260509153005 69 21 0.0 1.0 0.00 0.85 0.77 72 1011.5
20260509152504 69 13 0.0 1.0 0.00 0.96 0.77 73 1011.6
20260509152004 69 12 0.0 1.0 0.00 1.17 0.77 73 1011.5
20260509151505 68 40 0.0 2.0 0.00 1.28 0.77 72 1011.4
20260509151005 68 52 1.0 2.0 0.00 1.33 0.77 73 1011.3
20260509150505 68 61 1.0 3.0 0.00 1.35 0.77 73 1011.3
20260509150005 68 45 0.0 3.0 0.00 1.36 0.77 73 1011.3
20260509145504 68 13 0.0 2.0 0.00 1.38 0.77 73 1011.5
20260509145005 68 91 0.0 1.0 0.00 1.39 0.77 73 1011.5
20260509144504 68 0 0.0 0.0 0.00 1.41 0.77 73 1011.6
20260509144004 68 91 0.0 1.0 0.00 1.42 0.77 73 1011.7
20260509143504 67 100 0.0 1.0 0.00 1.43 0.77 73 1011.8
20260509143004 67 103 0.0 1.0 0.00 1.44 0.77 74 1011.5
20260509142504 67 194 0.0 1.0 0.00 1.45 0.77 74 1011.5
20260509142005 67 194 0.0 1.0 0.00 1.46 0.77 74 1011.7
20260509141005 67 0 0.0 0.0 0.00 1.47 0.77 74 1011.7
20260509140005 67 159 0.0 1.0 0.00 1.47 0.77 74 1011.7
20260509135504 67 159 0.0 1.0 0.00 1.47 0.77 74 1011.8
20260509135004 67 0 0.0 0.0 0.00 1.47 0.77 74 1011.6
20260509134504 67 0 0.0 0.0 0.00 1.47 0.77 74 1011.4
20260509133005 66 158 0.0 2.0 0.00 1.47 0.77 74 1010.8
20260509132504 66 22 0.0 1.0 0.00 1.47 0.77 74 1010.7
20260509132004 66 22 0.0 1.0 0.00 1.47 0.77 74 1010.5
20260509131504 66 0 0.0 0.0 0.00 1.47 0.77 74 1010.2
20260509131004 66 293 0.0 3.0 0.00 1.47 0.77 74 1010.4
20260509130504 66 203 0.0 3.0 0.00 1.47 0.77 75 1010.3
20260509130005 66 148 0.0 1.0 0.00 1.47 0.77 75 1010.2
20260509125504 65 0 0.0 0.0 0.00 1.47 0.77 75 1010.1
20260509125004 65 0 0.0 0.0 0.00 1.47 0.77 75 1009.9
20260509124504 65 0 0.0 0.0 0.00 1.47 0.77 75 1010.0
20260509124004 65 0 0.0 0.0 0.00 1.47 0.77 75 1010.1
20260509123004 65 231 0.0 2.0 0.00 1.47 0.77 75 1009.6
20260509122504 65 232 1.0 3.0 0.00 1.47 0.77 75 1009.2
20260509121504 65 107 0.0 2.0 0.01 1.47 0.77 75 1009.2
20260509121004 65 91 1.0 8.0 0.01 1.47 0.77 75 1009.3
20260509120504 65 72 2.0 8.0 0.02 1.47 0.77 75 1009.3
20260509120004 65 69 2.0 7.0 0.02 1.47 0.77 75 1009.2
20260509115504 65 79 1.0 7.0 0.02 1.47 0.77 75 1009.5
20260509114503 65 87 2.0 8.0 0.02 1.47 0.77 75 1009.2
20260509114004 65 83 2.0 8.0 0.03 1.47 0.77 75 1008.9
20260509113504 65 81 1.0 3.0 0.04 1.47 0.77 75 1009.0
20260509113003 65 77 1.0 3.0 0.05 1.47 0.77 75 1009.0
20260509112504 65 70 1.0 4.0 0.19 1.47 0.77 75 1009.0
20260509112004 65 72 1.0 5.0 0.44 1.47 0.77 75 1008.9
20260509111004 65 72 1.0 4.0 0.64 1.46 0.76 75 1009.7
20260509110505 65 69 1.0 4.0 0.63 1.45 0.75 75 1009.6
20260509105505 65 31 1.0 3.0 0.65 1.45 0.75 75 1010.1
20260509105005 65 57 1.0 3.0 0.71 1.45 0.75 75 1009.7
20260509103505 65 20 1.0 3.0 0.73 1.43 0.73 75 1009.7
20260509102505 65 173 1.0 4.0 0.58 1.28 0.58 75 1010.0
20260509102005 65 301 1.0 4.0 0.33 1.03 0.33 76 1010.6
20260509101505 64 343 1.0 3.0 0.15 0.85 0.15 76 1010.2
20260509101005 64 27 0.0 2.0 0.12 0.82 0.12 76 1009.5
20260509100504 64 70 0.0 1.0 0.12 0.82 0.12 76 1008.8
20260509095505 64 78 1.0 4.0 0.10 0.80 0.10 76 1007.6
20260509094505 64 0 0.0 0.0 0.00 0.70 0.00 76 1008.8
20260509094005 64 0 0.0 0.0 0.00 0.70 0.00 76 1008.6